This is the latest recevied weather packets stored in our database for station/object DF7ER-12. If no packets are shown the sender has not sent any weather packets the latest 10 day(s).
| Time | Temp. | Humidity | Pressure | Rain* | Wind** | Luminosity | Snow |
|---|---|---|---|---|---|---|---|
| 1787910978 | 28.33° C | 74% | 996.8 hPa | - | - | - | - |
| 1787910679 | 28.33° C | 75% | 996.8 hPa | - | - | - | - |
| 1787910379 | 27.22° C | 78% | 997.2 hPa | - | - | - | - |
| 1787910078 | 27.22° C | 77% | 997.2 hPa | - | - | - | - |
| 1787909778 | 26.67° C | 78% | 997.1 hPa | - | - | - | - |
| 1787909478 | 26.67° C | 80% | 997.1 hPa | - | - | - | - |
| 1787909178 | 26.11° C | 80% | 997.1 hPa | - | - | - | - |
| 1787908878 | 26.11° C | 79% | 997 hPa | - | - | - | - |
| 1787908578 | 26.11° C | 79% | 997.2 hPa | - | - | - | - |
| 1787908279 | 25° C | 83% | 997.3 hPa | - | - | - | - |
| 1787907978 | 24.44° C | 82% | 997.7 hPa | - | - | - | - |
| 1787907679 | 24.44° C | 83% | 997.9 hPa | - | - | - | - |
| 1787907378 | 24.44° C | 82% | 997.7 hPa | - | - | - | - |
| 1787907078 | 24.44° C | 81% | 997.5 hPa | - | - | - | - |
| 1787906778 | 24.44° C | 82% | 997.1 hPa | - | - | - | - |
| 1787906478 | 23.89° C | 81% | 997.2 hPa | - | - | - | - |
| 1787906178 | 23.89° C | 79% | 997.1 hPa | - | - | - | - |
| 1787905878 | 23.89° C | 83% | 997.1 hPa | - | - | - | - |
| 1787905578 | 23.33° C | 84% | 997.3 hPa | - | - | - | - |
| 1787905278 | 23.33° C | 82% | 997.6 hPa | - | - | - | - |
| 1787904978 | 23.33° C | 82% | 997.8 hPa | - | - | - | - |
| 1787904678 | 23.33° C | 80% | 997.9 hPa | - | - | - | - |
| 1787904379 | 23.33° C | 80% | 997.7 hPa | - | - | - | - |
| 1787904078 | 23.33° C | 81% | 997.7 hPa | - | - | - | - |
| 1787903778 | 23.33° C | 80% | 997.9 hPa | - | - | - | - |
* Rain since midnight (hover to see other rain measurements)
** Current wind speed in m/s (hover to see current wind gust speed)